#timestamp,LO_Frequency,Hit,StdDev 
1566241215.2,286047001.8,P
1566241235.0,286047003.9,P
1566241235.9,286047003.9,N
1566241255.8,286047001.5,N
1566241275.6,286047001.6,N
1566241295.5,286047001.5,N
1566241315.3,286047003.1,N
1566241335.1,286047003.9,Y
1566241355.9,286047000.0,P
1566241375.7,286047000.5,N
1566241395.6,286046998.5,N
1566241415.4,286047000.6,N
1566241435.2,286047002.0,N
1566241455.1,286047000.0,N
1566241456.0,286047000.0,N
1566241475.8,286047000.6,N
1566241495.6,286047001.2,N
1566241515.5,286046999.2,N
1566241535.3,286046999.5,N
1566241555.2,286046998.8,N
1566241575.9,286047001.0,N
1566241595.7,286046999.9,N
1566241615.6,286046999.9,N
1566241635.4,286047000.0,N
1566241655.3,286047000.1,N
1566241675.1,286047000.7,N
1566241676.0,286047000.7,N
1566241695.8,286046998.5,N
1566241715.7,286046999.1,N
1566241735.5,286046999.4,N
1566241755.3,286046999.7,N
1566241775.2,286046999.8,N
1566241795.0,286047000.4,N
1566241795.9,286047000.4,N
1566241815.8,286047000.4,N
1566241835.6,286047000.7,N
1566241855.4,286047000.5,N
1566241875.3,286047001.0,N
1566241895.1,286046999.7,N
1566241915.9,286047001.6,N
1566241935.7,286047001.9,N
1566241955.5,286047002.6,Y
1566241975.4,286047002.5,P
1566241995.2,286047001.3,N
1566242015.0,286046999.8,N
1566242016.0,286046999.8,N
1566242035.8,286046999.8,N
1566242055.6,286047002.4,N
1566242075.5,286047002.8,N
1566242095.3,286047002.7,N
1566242115.1,286047002.8,N
1566242135.9,286047001.7,N
1566242155.7,286047004.1,Y
1566242175.6,286046999.8,P
1566242195.4,286046998.7,N
1566242215.2,286047000.7,N
1566242235.1,286046998.5,N
1566242236.0,286046998.5,N
1566242255.8,286047000.9,N
1566242275.6,286047002.4,N
1566242295.5,286047000.7,N
1566242315.3,286046998.7,N
1566242335.2,286047000.6,N
1566242355.9,286046999.9,N
1566242375.7,286047000.7,N
1566242395.6,286046999.8,N
1566242415.4,286047002.6,N
1566242435.3,286047002.4,N
1566242455.1,286046999.8,N
1566242456.0,286046999.8,N
1566242475.8,286046999.9,N
1566242495.7,286047000.9,N
1566242515.5,286047000.3,N
1566242535.3,286047002.8,N
1566242555.2,286047002.6,N
1566242575.0,286047002.6,N
1566242575.9,286047002.6,N
1566242595.8,286047000.2,N
1566242615.6,286047011.9,Y
1566242635.4,286047002.7,P
1566242655.3,286047002.6,N
1566242675.1,286047002.6,N
1566242695.9,286047002.3,N
1566242715.7,286047002.8,Y
1566242735.5,286047001.0,P
1566242755.4,286047000.8,N
1566242775.2,286047001.1,N
1566242795.1,286047001.1,N
1566242796.0,286047001.1,N
1566242815.8,286046998.4,Y
1566242835.6,286046996.7,P
1566242855.5,286046996.6,N
1566242875.3,286046996.9,N
1566242895.2,286046996.6,N
1566242915.9,286046996.7,N
1566242935.7,286046998.0,N
1566242955.6,286046995.1,Y
1566242975.4,286046999.1,P
1566242995.2,286046999.0,N
1566243015.1,286046998.7,N
1566243016.0,286046998.7,N
1566243035.8,286046998.2,Y
1566243055.7,286046999.9,P
1566243075.5,286046998.4,N
1566243095.3,286046999.3,N
1566243115.2,286046998.4,N
1566243135.0,286046998.4,N
1566243135.9,286046998.4,N
1566243155.8,286046998.4,N
1566243175.6,286046998.6,N
1566243195.4,286046998.7,N
1566243215.3,286046998.4,Y
1566243235.1,286047000.5,P
1566243255.9,286047000.5,N
1566243275.7,286046998.6,N
1566243295.5,286046998.2,N
1566243315.4,286046998.7,N
1566243335.2,286046999.0,N
1566243355.1,286046996.5,Y
1566243356.0,286046996.5,P
1566243375.8,286046998.6,N
1566243395.6,286047001.2,N
1566243415.5,286046998.4,N
1566243435.3,286046998.6,N
1566243455.1,286046999.0,N
1566243475.9,286046999.4,N
1566243495.7,286046999.3,N
1566243515.6,286047001.1,N
1566243535.4,286046998.4,N
1566243555.2,286046999.4,N
1566243575.1,286046999.6,N
1566243576.0,286046999.6,N
1566243595.8,286046996.6,Y
1566243615.7,286046996.8,P
1566243635.5,286046995.1,P
1566243655.3,286046996.9,N
1566243675.2,286046996.6,N
1566243695.0,286046996.6,N
1566243695.9,286046996.6,N
1566243715.7,286046999.4,N
1566243735.6,286046999.0,N
1566243755.4,286046996.9,N
1566243775.3,286046997.6,N
1566243795.1,286046996.8,N
1566243796.0,286046996.8,N
1566243815.8,286046999.2,N
1566243835.7,286046998.8,N
1566243855.5,286046996.9,N
1566243875.4,286046998.8,N
1566243895.2,286047001.1,N
1566243915.0,286047000.7,N
1566243915.9,286047000.7,N
1566243935.8,286047001.2,N
1566243955.6,286046999.0,N
1566243975.4,286046999.0,N
1566243995.3,286046998.7,N
1566244015.1,286046998.6,N
1566244035.9,286046998.1,N
1566244055.7,286046999.1,N
1566244075.5,286046998.8,N
1566244095.4,286046997.1,N
1566244115.2,286046997.2,N
1566244135.1,286046997.7,N
1566244136.0,286046997.7,N
1566244155.8,286046996.7,N
1566244175.6,286047001.2,N
1566244195.5,286047000.5,N
1566244215.3,286046997.1,N
1566244235.2,286046996.7,N
1566244255.9,286047001.2,N
1566244275.7,286047001.2,N
1566244295.6,286046999.0,N
1566244315.4,286046997.0,N
1566244335.2,286046998.2,N
1566244355.1,286046998.4,N
1566244356.0,286046998.4,N
1566244375.8,286047000.0,N
1566244395.7,286047001.2,N
1566244415.5,286046998.6,N
1566244435.3,286047001.1,N
1566244455.2,286046998.5,N
1566244475.0,286047000.5,N
1566244475.9,286047000.5,N
1566244495.8,286046998.1,N
1566244515.6,286046998.8,N
1566244535.4,286047000.8,N
1566244555.3,286047000.6,N
1566244575.1,286047000.3,N
1566244595.8,286046999.7,N
1566244615.7,286047002.4,N
1566244635.5,286047000.4,N
1566244655.4,286047000.0,N
1566244675.2,286047002.6,N
1566244695.0,286047002.1,N
1566244695.9,286047002.1,N
1566244715.8,286047003.6,N
1566244735.6,286047003.8,N
1566244755.5,286047001.5,N
1566244775.3,286046999.7,N
1566244795.1,286047000.3,N
